Location: Chèvreville
(49.1099°N, 2.8495°E)
Time: 15:40:29
(UTC+00:00)

BlueWalker 3 - Pass Details

Date: 24 January 2026
Orbit: 451 x 461 km, 53.2° (Epoch: 16 February)

Event Time Altitude Azimuth Distance (km) Brightness Sun altitude
Rises 18:46:09 0° 250° (WSW) 2,452 6.8 -21.6°
Reaches altitude 10° 18:48:17 10° 252° (WSW) 1,581 5.5 -22.0°
Enters shadow 18:51:28 65° 286° (WNW) 502 2.0 -22.5°
